Weather in Mezha

Belarus     55°40′52″N   30°25′22″E
temp.,
°C
wind,
m/s
gust,
m/s
humid.,
%
clouds,
%
prec.,
mm/h
press.,
hPa
HPBL,
m
28 september, tue
tue2800:00+8n2684100 0.0 1028209
03:00+8n2587100 0.0 1028165
06:00+8nne2689100 0.0 1029213
09:00+9ne368510 0.0 1029379
12:00+12ene356597 0.1 10301242
15:00+10e3573100 0.1 1031594
18:00+10e367678 0.1 1032505
21:00+8e268362 0.1 1033276
29 september, wed
wed2900:00+7ese2777100 0.0 1035274
03:00+7ese258094 0.0 1035199
06:00+4ese23965 0.0 103663
09:00+6ese248152 0.0 1036213
12:00+10se235828 0.0 10361012
15:00+12se234828 0.0 10351176
18:00+8se226621 0.0 103424
21:00+5sse22795 0.0 103514
30 september, thu
thu3000:00+4sse22835 0.0 103616
03:00+3se228734 0.0 103618
06:00+2se228941 0.0 103626
09:00+5se24747 0.0 1036174
12:00+11sse355456 0.0 1035749
15:00+13sse35495 0.0 10341048
18:00+9sse24715 0.0 103388
21:00+6sse268510 0.0 1034100
1 october, fri
fri100:00+4sse26905 0.0 1034122
03:00+4sse27925 0.0 1034132
06:00+3sse27959 0.0 1034145
09:00+6sse38785 0.0 1033248
12:00+12s465488 0.0 1033684
15:00+13s4651100 0.0 1032926
18:00+10s267265 0.0 1031148
21:00+7s398494 0.0 1032180
2 october, sat
sat200:00+6s298756 0.0 1032180
03:00+4s289023 0.0 1031167
06:00+4sse39905 0.0 1030189
09:00+7sse310749 0.0 1030301
12:00+12s595121 0.0 1029737
15:00+14s594924 0.0 10271114
18:00+11s411636 0.0 1027564
21:00+8s414730 0.0 1027521